Volver al catálogo

ONEWEB-0366

ActivoComunicacionesPO
NORAD 49292·PAYLOAD·🇬🇧 United Kingdom

Lanzado Oct 14, 2021 desde Vostochny Cosmodrome

Loading…

Próximos Pases (próximas 24 horas)

TLE

ActualizadoSource: CelesTrak SupGP

Época: Sep 14, 2026, 06:57 UTC

1 49292C 21090P   26257.28977269 -.00000091  00000+0 -24542-3 0  2578
2 49292  87.8897 271.9379 0001935  93.4353  18.4138 13.14502848    10

Sigue ONEWEB-0366 en tiempo real con AllMySat

Download on the App Store